Location: Apollinopolis Magna
(24.9792°N, 32.8772°E)
Time: 19:36:32
(UTC+00:00)

Nadezhda 3 Rocket - Pass Details

Date: 02 March 2021
Orbit: 957 x 999 km, 82.9° (Epoch: 10 April)

Event Time Altitude Azimuth Distance (km) Brightness Sun altitude
Rises 17:07:45 0° 353° (N) 3,717 7.1 -18.1°
Reaches altitude 10° 17:10:17 10° 353° (N) 2,767 6.5 -18.7°
Maximum altitude 17:16:38 82° 267° (W) 1,010 4.1 -20.1°
Drops below altitude 10° 17:22:58 10° 180° (S) 2,751 6.3 -21.6°
Sets 17:25:29 0° 179° (S) 3,694 7.0 -22.1°
